BEE246 LEMH-EGJJ

Flight info

Callsign BEE246
Flight time 2h 4m
Altitude 34000
Route SARGO DCT VERSO DCT BGR DCT KANIG DCT GAI DCT PERIG DCT TUPAR UM184 EKRAS DCT BEVAV
Aircraft E75L/M-SDE3GILORVW/S

Departure

Time 2026-04-14 20:13
Airport Menorca Airport (LEMH)

Arrival

Time 2026-04-14 22:17
Airport Jersey Airport (EGJJ)
Time Latitude Longitude Altitude Speed Heading
2026-04-14 19:51 39.86199 4.22440 309 ft 0 kts 98°
2026-04-14 20:02 39.86199 4.22438 310 ft 1 kts 98°
2026-04-14 20:02 39.86202 4.22418 310 ft 3 kts 98°
2026-04-14 20:02 39.86205 4.22392 310 ft 3 kts 98°
2026-04-14 20:03 39.86208 4.22366 310 ft 3 kts 98°
2026-04-14 20:03 39.86210 4.22340 310 ft 3 kts 92°
2026-04-14 20:03 39.86208 4.22314 310 ft 3 kts 67°
2026-04-14 20:03 39.86197 4.22297 310 ft 3 kts 18°
2026-04-14 20:04 39.86182 4.22293 310 ft 6 kts
2026-04-14 20:04 39.86195 4.22295 309 ft 0 kts
2026-04-14 20:05 39.86196 4.22295 309 ft 1 kts
2026-04-14 20:05 39.86210 4.22298 309 ft 4 kts
2026-04-14 20:06 39.86246 4.22306 309 ft 7 kts
2026-04-14 20:06 39.86311 4.22319 309 ft 12 kts
2026-04-14 20:06 39.86408 4.22339 309 ft 16 kts
2026-04-14 20:06 39.86536 4.22363 309 ft 20 kts
2026-04-14 20:07 39.86667 4.22383 309 ft 15 kts 346°
2026-04-14 20:07 39.86698 4.22284 309 ft 12 kts 277°
2026-04-14 20:07 39.86733 4.22239 309 ft 5 kts
2026-04-14 20:07 39.86758 4.22242 309 ft 3 kts
2026-04-14 20:08 39.86768 4.22245 309 ft 0 kts 10°
2026-04-14 20:08 39.86777 4.22247 309 ft 3 kts 10°
2026-04-14 20:08 39.86813 4.22254 309 ft 8 kts
2026-04-14 20:08 39.86887 4.22269 309 ft 13 kts
2026-04-14 20:09 39.86995 4.22292 309 ft 18 kts
2026-04-14 20:09 39.87132 4.22320 309 ft 22 kts
2026-04-14 20:09 39.87282 4.22353 309 ft 19 kts
2026-04-14 20:09 39.87311 4.22272 309 ft 10 kts 253°
2026-04-14 20:10 39.87276 4.22203 309 ft 6 kts 230°
2026-04-14 20:10 39.87259 4.22178 309 ft 1 kts 228°
2026-04-14 20:10 39.87258 4.22177 309 ft 0 kts 228°
2026-04-14 20:11 39.87253 4.22170 309 ft 4 kts 228°
2026-04-14 20:11 39.87216 4.22116 309 ft 12 kts 227°
2026-04-14 20:11 39.87166 4.22050 309 ft 8 kts 186°
2026-04-14 20:12 39.87120 4.22041 309 ft 10 kts 188°
2026-04-14 20:12 39.86894 4.21993 309 ft 66 kts 190°
2026-04-14 20:12 39.86223 4.21858 310 ft 128 kts 189°
2026-04-14 20:12 39.85224 4.21651 622 ft 151 kts 191°
2026-04-14 20:13 39.84198 4.21451 1302 ft 153 kts 190°
2026-04-14 20:13 39.83130 4.21235 1848 ft 158 kts 192°
2026-04-14 20:13 39.81964 4.21003 2246 ft 176 kts 193°
2026-04-14 20:13 39.80709 4.20765 2762 ft 188 kts 192°
2026-04-14 20:14 39.79386 4.20506 3332 ft 199 kts 192°
2026-04-14 20:14 39.77936 4.20218 3580 ft 220 kts 192°
2026-04-14 20:14 39.76469 4.19459 3637 ft 236 kts 221°
2026-04-14 20:14 39.75461 4.17808 3996 ft 238 kts 249°
2026-04-14 20:15 39.74883 4.15765 4749 ft 248 kts 259°
2026-04-14 20:15 39.74529 4.13541 5495 ft 256 kts 268°
2026-04-14 20:15 39.74562 4.11243 6263 ft 254 kts 291°
2026-04-14 20:15 39.75417 4.09310 7109 ft 248 kts 316°
2026-04-14 20:16 39.76717 4.07833 7944 ft 249 kts 329°
2026-04-14 20:16 39.78220 4.06692 8778 ft 252 kts 337°
2026-04-14 20:16 39.79831 4.05805 9630 ft 254 kts 343°
2026-04-14 20:16 39.81556 4.05125 10492 ft 257 kts 348°
2026-04-14 20:17 39.83319 4.04728 11333 ft 259 kts 358°
2026-04-14 20:17 39.85112 4.04861 12242 ft 257 kts
2026-04-14 20:17 39.86891 4.04805 13153 ft 255 kts 356°
2026-04-14 20:17 39.88649 4.04576 14051 ft 252 kts 354°
2026-04-14 20:18 39.90376 4.04308 14941 ft 248 kts 354°
2026-04-14 20:18 39.92072 4.04070 15808 ft 244 kts 355°
2026-04-14 20:18 39.93742 4.03877 16664 ft 238 kts 356°
2026-04-14 20:18 39.95449 4.03714 16953 ft 259 kts 356°
2026-04-14 20:19 39.97328 4.03557 17069 ft 283 kts 356°
2026-04-14 20:19 39.99383 4.03401 17329 ft 300 kts 356°
2026-04-14 20:19 40.01496 4.03237 17825 ft 308 kts 356°
2026-04-14 20:19 40.03636 4.03066 18477 ft 310 kts 356°
2026-04-14 20:20 40.05789 4.02888 19172 ft 311 kts 356°
2026-04-14 20:20 40.07951 4.02707 19843 ft 312 kts 356°
2026-04-14 20:20 40.10117 4.02525 20461 ft 314 kts 356°
2026-04-14 20:20 40.12303 4.02341 21030 ft 317 kts 356°
2026-04-14 20:21 40.14511 4.02156 21554 ft 320 kts 356°
2026-04-14 20:21 40.16745 4.01971 22061 ft 324 kts 356°
2026-04-14 20:21 40.19002 4.01783 22555 ft 327 kts 356°
2026-04-14 20:21 40.21281 4.01593 23036 ft 330 kts 356°
2026-04-14 20:22 40.23583 4.01400 23513 ft 333 kts 356°
2026-04-14 20:22 40.25897 4.01207 23978 ft 336 kts 356°
2026-04-14 20:22 40.28237 4.01011 24437 ft 338 kts 357°
2026-04-14 20:22 40.30586 4.00815 24910 ft 339 kts 357°
2026-04-14 20:23 40.32938 4.00618 25396 ft 340 kts 357°
2026-04-14 20:23 40.35325 4.00418 25901 ft 339 kts 357°
2026-04-14 20:23 40.37645 4.00223 26384 ft 339 kts 357°
2026-04-14 20:23 40.40028 4.00023 26864 ft 339 kts 357°
2026-04-14 20:24 40.42381 3.99825 27330 ft 339 kts 357°
2026-04-14 20:24 40.44732 3.99627 27797 ft 339 kts 357°
2026-04-14 20:24 40.47077 3.99429 28243 ft 339 kts 357°
2026-04-14 20:24 40.49425 3.99215 28677 ft 339 kts 355°
2026-04-14 20:25 40.51733 3.98581 29097 ft 341 kts 345°
2026-04-14 20:25 40.54003 3.97695 29510 ft 341 kts 347°
2026-04-14 20:25 40.56283 3.96875 29908 ft 341 kts 347°
2026-04-14 20:25 40.58571 3.96062 30280 ft 342 kts 347°
2026-04-14 20:26 40.60882 3.95246 30508 ft 347 kts 348°
2026-04-14 20:26 40.64850 3.93845 30712 ft 359 kts 348°
2026-04-14 20:26 40.67285 3.92984 30821 ft 367 kts 347°
2026-04-14 20:27 40.69771 3.92102 30928 ft 374 kts 347°
2026-04-14 20:27 40.72297 3.91203 31038 ft 380 kts 347°
2026-04-14 20:27 40.74858 3.90289 31180 ft 384 kts 347°
2026-04-14 20:27 40.77444 3.89364 31372 ft 387 kts 347°
2026-04-14 20:28 40.80045 3.88431 31638 ft 388 kts 347°
2026-04-14 20:28 40.82641 3.87498 31966 ft 387 kts 348°
2026-04-14 20:28 40.85263 3.86553 32340 ft 384 kts 348°
2026-04-14 20:28 40.87822 3.85630 32732 ft 381 kts 348°
2026-04-14 20:29 40.90365 3.84712 33130 ft 377 kts 348°
2026-04-14 20:29 40.92884 3.83802 33510 ft 374 kts 348°
2026-04-14 20:29 40.95380 3.82899 33863 ft 372 kts 348°
2026-04-14 20:29 40.97868 3.82000 34055 ft 372 kts 348°
2026-04-14 20:30 41.00366 3.81097 34136 ft 373 kts 348°
2026-04-14 20:30 41.05342 3.79296 34147 ft 368 kts 348°
2026-04-14 20:31 41.10352 3.77483 34149 ft 379 kts 348°
2026-04-14 20:31 41.15518 3.75486 34148 ft 392 kts 342°
2026-04-14 20:32 41.20486 3.72207 34141 ft 404 kts 338°
2026-04-14 20:32 41.25506 3.68778 34114 ft 408 kts 338°
2026-04-14 20:33 41.30552 3.65321 34147 ft 409 kts 338°
2026-04-14 20:33 41.35616 3.61847 34067 ft 411 kts 338°
2026-04-14 20:34 41.43198 3.56636 34267 ft 409 kts 337°
2026-04-14 20:34 41.48304 3.53125 34234 ft 412 kts 337°
2026-04-14 20:35 41.53392 3.49619 34135 ft 413 kts 337°
2026-04-14 20:35 41.55939 3.47861 34032 ft 411 kts 337°
2026-04-14 20:35 41.58468 3.46113 34052 ft 409 kts 337°
2026-04-14 20:36 41.63510 3.42625 34201 ft 406 kts 338°
2026-04-14 20:36 41.68529 3.39148 34250 ft 409 kts 337°
2026-04-14 20:37 41.73584 3.35644 34202 ft 411 kts 337°
2026-04-14 20:37 41.76121 3.33882 34076 ft 412 kts 337°
2026-04-14 20:37 41.78653 3.32121 34010 ft 409 kts 337°
2026-04-14 20:38 41.83711 3.28593 34084 ft 407 kts 337°
2026-04-14 20:38 41.86215 3.26850 34214 ft 406 kts 337°
2026-04-14 20:38 41.88734 3.25093 34097 ft 410 kts 337°
2026-04-14 20:39 41.93750 3.21594 34218 ft 405 kts 338°
2026-04-14 20:39 41.96347 3.20163 34104 ft 404 kts 346°
2026-04-14 20:39 41.99007 3.19071 34178 ft 401 kts 346°
2026-04-14 20:40 42.04312 3.16845 34174 ft 399 kts 346°
2026-04-14 20:40 42.09613 3.14618 34158 ft 399 kts 346°
2026-04-14 20:41 42.14898 3.12389 34158 ft 398 kts 346°
2026-04-14 20:41 42.20211 3.10144 34162 ft 398 kts 346°
2026-04-14 20:42 42.25475 3.07913 34166 ft 397 kts 346°
2026-04-14 20:43 42.33372 3.04556 34174 ft 397 kts 346°
2026-04-14 20:43 42.38638 3.02317 34180 ft 397 kts 345°
2026-04-14 20:44 42.43902 3.00071 34185 ft 397 kts 346°
2026-04-14 20:44 42.49133 2.97512 34189 ft 401 kts 337°
2026-04-14 20:45 42.54000 2.93780 34196 ft 402 kts 335°
2026-04-14 20:45 42.58861 2.90044 34198 ft 402 kts 335°
2026-04-14 20:46 42.63713 2.86309 34200 ft 401 kts 335°
2026-04-14 20:46 42.68560 2.82577 34202 ft 401 kts 335°
2026-04-14 20:47 42.73402 2.78841 34201 ft 400 kts 335°
2026-04-14 20:47 42.78239 2.75103 34201 ft 400 kts 335°
2026-04-14 20:48 42.83070 2.71363 34202 ft 400 kts 335°
2026-04-14 20:48 42.87932 2.67592 34203 ft 400 kts 335°
2026-04-14 20:49 42.92753 2.63846 34205 ft 399 kts 335°
2026-04-14 20:49 42.97563 2.60101 34208 ft 399 kts 335°
2026-04-14 20:50 43.02370 2.56355 34213 ft 399 kts 335°
2026-04-14 20:50 43.07181 2.52597 34218 ft 399 kts 335°
2026-04-14 20:51 43.12017 2.48813 34223 ft 398 kts 335°
2026-04-14 20:51 43.16814 2.45052 34226 ft 398 kts 335°
2026-04-14 20:52 43.21608 2.41287 34229 ft 398 kts 335°
2026-04-14 20:52 43.26399 2.37517 34231 ft 397 kts 335°
2026-04-14 20:53 43.31182 2.33747 34232 ft 396 kts 335°
2026-04-14 20:53 43.35946 2.29984 34237 ft 395 kts 335°
2026-04-14 20:54 43.40738 2.26193 34245 ft 395 kts 335°
2026-04-14 20:54 43.45490 2.22427 34252 ft 395 kts 335°
2026-04-14 20:55 43.50244 2.18652 34256 ft 395 kts 335°
2026-04-14 20:55 43.54994 2.14873 34257 ft 394 kts 335°
2026-04-14 20:56 43.59737 2.11093 34258 ft 394 kts 335°
2026-04-14 20:56 43.64476 2.07310 34258 ft 394 kts 335°
2026-04-14 20:57 43.69212 2.03521 34258 ft 394 kts 334°
2026-04-14 20:57 43.73942 1.99729 34257 ft 393 kts 335°
2026-04-14 20:58 43.78692 1.95916 34256 ft 393 kts 335°
2026-04-14 20:58 43.83417 1.92117 34254 ft 393 kts 334°
2026-04-14 20:59 43.88134 1.88315 34253 ft 393 kts 334°
2026-04-14 20:59 43.92858 1.84501 34253 ft 393 kts 334°
2026-04-14 21:00 43.97611 1.80783 34251 ft 392 kts 336°
2026-04-14 21:00 44.02443 1.77293 34250 ft 392 kts 337°
2026-04-14 21:01 44.07319 1.73799 34249 ft 393 kts 337°
2026-04-14 21:01 44.12168 1.70315 34247 ft 393 kts 337°
2026-04-14 21:02 44.17014 1.66820 34246 ft 393 kts 336°
2026-04-14 21:02 44.21867 1.63308 34247 ft 394 kts 336°
2026-04-14 21:03 44.26722 1.59786 34246 ft 395 kts 336°
2026-04-14 21:03 44.31590 1.56246 34245 ft 395 kts 336°
2026-04-14 21:04 44.36499 1.52668 34245 ft 396 kts 336°
2026-04-14 21:04 44.41376 1.49105 34240 ft 397 kts 336°
2026-04-14 21:05 44.46263 1.45527 34238 ft 398 kts 336°
2026-04-14 21:05 44.51159 1.41936 34237 ft 398 kts 336°
2026-04-14 21:06 44.56059 1.38335 34231 ft 399 kts 336°
2026-04-14 21:06 44.60972 1.34717 34234 ft 400 kts 335°
2026-04-14 21:07 44.65927 1.31061 34235 ft 400 kts 335°
2026-04-14 21:07 44.70852 1.27420 34234 ft 401 kts 335°
2026-04-14 21:08 44.75791 1.23761 34234 ft 402 kts 335°
2026-04-14 21:08 44.80730 1.20092 34234 ft 402 kts 335°
2026-04-14 21:09 44.85677 1.16416 34233 ft 403 kts 335°
2026-04-14 21:09 44.90628 1.12727 34234 ft 403 kts 335°
2026-04-14 21:10 44.95621 1.08999 34233 ft 404 kts 335°
2026-04-14 21:10 45.00577 1.05292 34233 ft 404 kts 335°
2026-04-14 21:11 45.05544 1.01569 34232 ft 405 kts 335°
2026-04-14 21:11 45.10517 0.97825 34232 ft 406 kts 334°
2026-04-14 21:12 45.15031 0.92976 34236 ft 412 kts 323°
2026-04-14 21:12 45.19387 0.87713 34232 ft 412 kts 323°
2026-04-14 21:13 45.23768 0.82410 34231 ft 412 kts 323°
2026-04-14 21:13 45.28117 0.77135 34231 ft 412 kts 323°
2026-04-14 21:14 45.34646 0.69197 34232 ft 413 kts 323°
2026-04-14 21:14 45.39000 0.63888 34233 ft 413 kts 323°
2026-04-14 21:15 45.43360 0.58562 34239 ft 414 kts 323°
2026-04-14 21:15 45.47720 0.53224 34256 ft 415 kts 323°
2026-04-14 21:16 45.52121 0.47825 34260 ft 415 kts 322°
2026-04-14 21:16 45.56494 0.42447 34260 ft 416 kts 322°
2026-04-14 21:17 45.60876 0.37048 34261 ft 417 kts 322°
2026-04-14 21:17 45.65261 0.31634 34260 ft 418 kts 322°
2026-04-14 21:18 45.69647 0.26205 34261 ft 418 kts 322°
2026-04-14 21:18 45.74039 0.20756 34260 ft 419 kts 322°
2026-04-14 21:19 45.77722 0.16183 34260 ft 419 kts 322°
2026-04-14 21:19 45.82857 0.09787 34259 ft 419 kts 322°
2026-04-14 21:20 45.86507 0.05229 34259 ft 419 kts 322°
2026-04-14 21:20 45.90901 -0.00264 34258 ft 420 kts 321°
2026-04-14 21:21 45.95314 -0.05791 34256 ft 423 kts 320°
2026-04-14 21:21 45.99767 -0.11385 34255 ft 423 kts 320°
2026-04-14 21:22 46.04206 -0.16972 34253 ft 425 kts 319°
2026-04-14 21:22 46.08647 -0.22577 34251 ft 425 kts 319°
2026-04-14 21:23 46.13086 -0.28191 34249 ft 425 kts 319°
2026-04-14 21:23 46.17521 -0.33811 34246 ft 425 kts 319°
2026-04-14 21:24 46.21980 -0.39477 34240 ft 425 kts 319°
2026-04-14 21:24 46.26403 -0.45107 34238 ft 425 kts 319°
2026-04-14 21:25 46.30824 -0.50748 34237 ft 425 kts 319°
2026-04-14 21:25 46.35241 -0.56396 34237 ft 425 kts 319°
2026-04-14 21:26 46.39659 -0.62058 34235 ft 425 kts 319°
2026-04-14 21:26 46.44072 -0.67724 34235 ft 425 kts 319°
2026-04-14 21:27 46.48489 -0.73395 34234 ft 425 kts 319°
2026-04-14 21:27 46.52934 -0.79112 34234 ft 425 kts 319°
2026-04-14 21:28 46.57345 -0.84800 34233 ft 425 kts 319°
2026-04-14 21:28 46.61757 -0.90484 34232 ft 425 kts 319°
2026-04-14 21:29 46.66173 -0.96171 34231 ft 425 kts 319°
2026-04-14 21:29 46.70588 -1.01870 34231 ft 425 kts 319°
2026-04-14 21:30 46.74999 -1.07577 34228 ft 425 kts 319°
2026-04-14 21:30 46.79432 -1.13329 34228 ft 425 kts 319°
2026-04-14 21:31 46.83843 -1.19058 34227 ft 425 kts 319°
2026-04-14 21:31 46.88245 -1.24794 34225 ft 425 kts 318°
2026-04-14 21:32 46.92670 -1.30573 34222 ft 425 kts 318°
2026-04-14 21:32 46.97534 -1.35296 34218 ft 426 kts 335°
2026-04-14 21:33 47.03348 -1.37283 34220 ft 432 kts 352°
2026-04-14 21:33 47.09348 -1.37712 34211 ft 434 kts 354°
2026-04-14 21:34 47.15377 -1.37955 34205 ft 434 kts 355°
2026-04-14 21:34 47.21409 -1.38221 34202 ft 435 kts 354°
2026-04-14 21:35 47.27455 -1.38529 34201 ft 436 kts 354°
2026-04-14 21:35 47.33547 -1.38868 34201 ft 436 kts 354°
2026-04-14 21:36 47.39598 -1.39226 34202 ft 436 kts 354°
2026-04-14 21:36 47.45663 -1.39594 34201 ft 437 kts 354°
2026-04-14 21:37 47.51725 -1.39971 34199 ft 437 kts 354°
2026-04-14 21:37 47.57798 -1.40353 34197 ft 437 kts 354°
2026-04-14 21:38 47.63865 -1.40739 34195 ft 437 kts 354°
2026-04-14 21:38 47.69975 -1.41131 34192 ft 437 kts 354°
2026-04-14 21:39 47.76047 -1.41560 34190 ft 437 kts 353°
2026-04-14 21:39 47.82120 -1.42017 34188 ft 438 kts 353°
2026-04-14 21:40 47.88197 -1.42477 34184 ft 438 kts 353°
2026-04-14 21:40 47.94268 -1.42937 34181 ft 438 kts 353°
2026-04-14 21:41 48.00342 -1.43398 34179 ft 438 kts 353°
2026-04-14 21:41 48.06468 -1.43854 34177 ft 439 kts 353°
2026-04-14 21:42 48.12563 -1.44293 34174 ft 439 kts 353°
2026-04-14 21:42 48.18655 -1.44731 34173 ft 439 kts 353°
2026-04-14 21:43 48.24751 -1.45169 34172 ft 439 kts 353°
2026-04-14 21:43 48.30849 -1.45610 34171 ft 439 kts 353°
2026-04-14 21:44 48.36940 -1.46052 34169 ft 440 kts 353°
2026-04-14 21:44 48.43044 -1.46496 34167 ft 440 kts 353°
2026-04-14 21:45 48.49057 -1.46924 33823 ft 415 kts 353°
2026-04-14 21:45 48.51910 -1.47125 33077 ft 409 kts 353°
2026-04-14 21:45 48.54750 -1.47332 31982 ft 412 kts 353°
2026-04-14 21:46 48.57631 -1.47546 30739 ft 419 kts 353°
2026-04-14 21:46 48.60552 -1.47764 29646 ft 421 kts 353°
2026-04-14 21:46 48.63467 -1.47980 28636 ft 420 kts 353°
2026-04-14 21:46 48.66378 -1.48195 27635 ft 419 kts 354°
2026-04-14 21:47 48.69293 -1.48410 26590 ft 419 kts 354°
2026-04-14 21:47 48.72206 -1.48625 25475 ft 420 kts 354°
2026-04-14 21:47 48.75129 -1.48841 24276 ft 423 kts 354°
2026-04-14 21:47 48.78111 -1.49063 23051 ft 425 kts 354°
2026-04-14 21:48 48.81063 -1.49281 21940 ft 424 kts 354°
2026-04-14 21:48 48.83988 -1.49497 20966 ft 419 kts 354°
2026-04-14 21:48 48.86861 -1.49824 20103 ft 409 kts 349°
2026-04-14 21:48 48.89590 -1.50804 19284 ft 398 kts 340°
2026-04-14 21:49 48.92093 -1.52409 18488 ft 387 kts 330°
2026-04-14 21:49 48.94351 -1.54530 17676 ft 378 kts 323°
2026-04-14 21:49 48.96457 -1.56862 16817 ft 373 kts 321°
2026-04-14 21:49 48.98502 -1.59241 15888 ft 370 kts 320°
2026-04-14 21:50 49.00530 -1.61636 14927 ft 368 kts 320°
2026-04-14 21:50 49.02453 -1.64162 13981 ft 364 kts 313°
2026-04-14 21:50 49.04082 -1.67070 13073 ft 359 kts 304°
2026-04-14 21:50 49.05364 -1.70276 12647 ft 353 kts 295°
2026-04-14 21:51 49.06269 -1.73741 12415 ft 352 kts 283°
2026-04-14 21:51 49.06684 -1.77457 12226 ft 354 kts 276°
2026-04-14 21:51 49.06964 -1.81171 11735 ft 352 kts 274°
2026-04-14 21:51 49.07184 -1.84861 11235 ft 348 kts 274°
2026-04-14 21:52 49.07375 -1.88476 10727 ft 336 kts 273°
2026-04-14 21:52 49.07548 -1.91965 10219 ft 325 kts 272°
2026-04-14 21:52 49.07710 -1.95352 9712 ft 317 kts 272°
2026-04-14 21:52 49.07862 -1.98658 9207 ft 309 kts 272°
2026-04-14 21:53 49.08007 -2.01890 8704 ft 303 kts 272°
2026-04-14 21:53 49.08147 -2.05063 8199 ft 298 kts 272°
2026-04-14 21:53 49.08281 -2.08183 7701 ft 293 kts 271°
2026-04-14 21:53 49.08412 -2.11260 7200 ft 289 kts 271°
2026-04-14 21:54 49.08540 -2.14302 6699 ft 286 kts 271°
2026-04-14 21:54 49.08664 -2.17308 6199 ft 283 kts 271°
2026-04-14 21:54 49.08785 -2.20287 5699 ft 280 kts 271°
2026-04-14 21:54 49.08904 -2.23236 5448 ft 270 kts 271°
2026-04-14 21:55 49.09016 -2.26021 5248 ft 263 kts 270°
2026-04-14 21:55 49.09128 -2.28824 5142 ft 260 kts 270°
2026-04-14 21:55 49.09234 -2.31564 5067 ft 259 kts 270°
2026-04-14 21:55 49.09340 -2.34347 4549 ft 265 kts 270°
2026-04-14 21:56 49.09445 -2.37134 4061 ft 265 kts 270°
2026-04-14 21:56 49.09550 -2.39940 3565 ft 265 kts 270°
2026-04-14 21:56 49.09655 -2.42752 3066 ft 266 kts 270°
2026-04-14 21:56 49.09760 -2.45553 2617 ft 264 kts 270°
2026-04-14 21:57 49.09862 -2.48316 2350 ft 257 kts 270°
2026-04-14 21:57 49.09962 -2.50991 2192 ft 248 kts 270°
2026-04-14 21:57 49.10069 -2.53542 2095 ft 236 kts 272°
2026-04-14 21:57 49.10567 -2.55864 2005 ft 233 kts 302°
2026-04-14 21:58 49.11831 -2.57300 2054 ft 228 kts 336°
2026-04-14 21:58 49.13436 -2.57405 2069 ft 233 kts 12°
2026-04-14 21:58 49.14800 -2.56138 2052 ft 232 kts 48°
2026-04-14 21:58 49.15649 -2.54087 2095 ft 230 kts 65°
2026-04-14 21:59 49.16363 -2.51905 2050 ft 230 kts 61°
2026-04-14 21:59 49.17265 -2.49895 2038 ft 229 kts 58°
2026-04-14 21:59 49.18041 -2.47793 1997 ft 225 kts 66°
2026-04-14 21:59 49.18600 -2.45612 1988 ft 217 kts 75°
2026-04-14 22:00 49.19061 -2.43441 1991 ft 213 kts 74°
2026-04-14 22:00 49.19512 -2.41299 1988 ft 210 kts 78°
2026-04-14 22:00 49.19680 -2.39124 2005 ft 204 kts 92°
2026-04-14 22:00 49.19731 -2.36992 2019 ft 198 kts 92°
2026-04-14 22:01 49.19733 -2.34909 1990 ft 190 kts 96°
2026-04-14 22:01 49.19688 -2.32918 1953 ft 188 kts 95°
2026-04-14 22:01 49.19789 -2.30945 1733 ft 182 kts 87°
2026-04-14 22:01 49.19957 -2.29109 1486 ft 168 kts 86°
2026-04-14 22:02 49.20129 -2.27418 1258 ft 154 kts 85°
2026-04-14 22:02 49.20273 -2.25818 1013 ft 153 kts 86°
2026-04-14 22:02 49.20407 -2.24274 757 ft 141 kts 86°
2026-04-14 22:02 49.20524 -2.22810 583 ft 135 kts 88°
2026-04-14 22:03 49.20647 -2.21366 569 ft 136 kts 89°
2026-04-14 22:03 49.20699 -2.19976 567 ft 127 kts 94°
2026-04-14 22:03 49.20766 -2.18572 703 ft 144 kts 87°
2026-04-14 22:03 49.20995 -2.16990 1160 ft 151 kts 79°
2026-04-14 22:04 49.21259 -2.15396 1671 ft 161 kts 79°
2026-04-14 22:04 49.21539 -2.13690 2142 ft 173 kts 81°
2026-04-14 22:04 49.21832 -2.11835 2560 ft 186 kts 81°
2026-04-14 22:04 49.22127 -2.09732 2701 ft 221 kts 82°
2026-04-14 22:05 49.22448 -2.07263 2832 ft 254 kts 84°
2026-04-14 22:05 49.22291 -2.04587 2806 ft 253 kts 116°
2026-04-14 22:05 49.21253 -2.02518 2892 ft 244 kts 147°
2026-04-14 22:05 49.19754 -2.01449 2952 ft 238 kts 166°
2026-04-14 22:06 49.18139 -2.00846 2925 ft 239 kts 172°
2026-04-14 22:06 49.16524 -2.00432 2899 ft 227 kts 174°
2026-04-14 22:06 49.14992 -2.00099 2897 ft 220 kts 175°
2026-04-14 22:06 49.13506 -2.00125 2878 ft 210 kts 198°
2026-04-14 22:07 49.12386 -2.01425 2911 ft 208 kts 234°
2026-04-14 22:07 49.11837 -2.03455 2944 ft 208 kts 250°
2026-04-14 22:07 49.11512 -2.05609 2909 ft 208 kts 255°
2026-04-14 22:07 49.11268 -2.07791 2908 ft 211 kts 257°
2026-04-14 22:08 49.11043 -2.10009 2905 ft 212 kts 257°
2026-04-14 22:08 49.10826 -2.12238 2904 ft 213 kts 257°
2026-04-14 22:08 49.10610 -2.14480 2904 ft 214 kts 257°
2026-04-14 22:08 49.10396 -2.16723 2903 ft 215 kts 258°
2026-04-14 22:09 49.10299 -2.19003 2905 ft 217 kts 265°
2026-04-14 22:09 49.10312 -2.21304 2905 ft 218 kts 266°
2026-04-14 22:09 49.10353 -2.23641 2898 ft 218 kts 267°
2026-04-14 22:09 49.10405 -2.25930 2837 ft 216 kts 268°
2026-04-14 22:10 49.10458 -2.28243 2608 ft 218 kts 268°
2026-04-14 22:10 49.10508 -2.30550 2389 ft 217 kts 268°
2026-04-14 22:10 49.10557 -2.32842 2265 ft 218 kts 268°
2026-04-14 22:10 49.10601 -2.35150 2133 ft 217 kts 268°
2026-04-14 22:11 49.10642 -2.37449 2078 ft 217 kts 268°
2026-04-14 22:11 49.10682 -2.39753 2029 ft 218 kts 268°
2026-04-14 22:11 49.10719 -2.42030 2084 ft 215 kts 267°
2026-04-14 22:11 49.10803 -2.44332 2045 ft 219 kts 275°
2026-04-14 22:12 49.11524 -2.46379 2004 ft 228 kts 313°
2026-04-14 22:12 49.12955 -2.47422 2027 ft 233 kts 344°
2026-04-14 22:12 49.14558 -2.47727 2047 ft 233 kts 353°
2026-04-14 22:12 49.15651 -2.47819 2025 ft 232 kts 355°
2026-04-14 22:13 49.17259 -2.47862 1997 ft 232 kts 359°
2026-04-14 22:13 49.18798 -2.47229 1949 ft 232 kts 32°
2026-04-14 22:13 49.19764 -2.45360 1993 ft 224 kts 71°
2026-04-14 22:13 49.19980 -2.43095 2057 ft 209 kts 92°
2026-04-14 22:14 49.19956 -2.40919 2039 ft 203 kts 97°
2026-04-14 22:14 49.19807 -2.38839 2018 ft 192 kts 103°
2026-04-14 22:14 49.19673 -2.36835 1987 ft 188 kts 95°
2026-04-14 22:14 49.19732 -2.34827 2000 ft 186 kts 92°
2026-04-14 22:15 49.19757 -2.32875 2012 ft 180 kts 92°
2026-04-14 22:15 49.19846 -2.31001 1851 ft 173 kts 89°
2026-04-14 22:15 49.19978 -2.29229 1569 ft 162 kts 88°
2026-04-14 22:15 49.20122 -2.27603 1314 ft 148 kts 86°
2026-04-14 22:16 49.20251 -2.26082 1026 ft 142 kts 87°
2026-04-14 22:16 49.20377 -2.24591 785 ft 140 kts 87°
2026-04-14 22:16 49.20496 -2.23126 621 ft 136 kts 87°
2026-04-14 22:16 49.20616 -2.21694 471 ft 138 kts 87°
2026-04-14 22:17 49.20734 -2.20261 303 ft 134 kts 87°
2026-04-14 22:17 49.20826 -2.19005 288 ft 91 kts 84°
2026-04-14 22:17 49.20881 -2.18467 288 ft 24 kts 86°
2026-04-14 22:17 49.20829 -2.18375 288 ft 8 kts 186°
2026-04-14 22:18 49.20787 -2.18396 288 ft 4 kts 207°
2026-04-14 22:18 49.20767 -2.18414 288 ft 3 kts 216°
2026-04-14 22:18 49.20754 -2.18433 288 ft 3 kts 228°
2026-04-14 22:18 49.20736 -2.18472 288 ft 6 kts 240°
2026-04-14 22:19 49.20725 -2.18558 288 ft 10 kts 263°
2026-04-14 22:19 49.20699 -2.18859 288 ft 18 kts 262°
2026-04-14 22:19 49.20682 -2.19056 288 ft 20 kts 262°
2026-04-14 22:20 49.20683 -2.19260 288 ft 18 kts 289°
2026-04-14 22:20 49.20702 -2.19440 288 ft 16 kts 263°
2026-04-14 22:20 49.20686 -2.19591 288 ft 12 kts 255°
2026-04-14 22:20 49.20637 -2.19666 288 ft 7 kts 214°
2026-04-14 22:21 49.20610 -2.19692 288 ft 4 kts 200°
2026-04-14 22:21 49.20578 -2.19701 288 ft 5 kts 180°
2026-04-14 22:21 49.20554 -2.19698 288 ft 0 kts 175°
2026-04-14 22:21 49.20553 -2.19698 288 ft 0 kts 175°